Location: Haliburton Scout Reserve
(45.0900°N, 78.3200°W)
Time: 05:41:41
(UTC-05:00)

Tiros 1 despin weight - Visible Passes

Search period start: 05 March 2024 00:00
Search period end: 15 March 2024 01:00
Orbit: 581 x 624 km, 48.2° (Epoch: 04 March)

Date Brightness Start Highest point End Pass type
(mag) Time Alt. Az. Time Alt. Az. Time Alt. Az.
05 Mar ? 05:28:50 10° S 05:31:17 15° SE 05:33:44 10° ESE visible
06 Mar ? 05:38:49 10° SSW 05:42:25 24° SE 05:46:00 10° E visible
07 Mar ? 05:49:29 10° SW 05:53:38 39° SSE 05:57:44 10° ENE visible
08 Mar ? 04:22:33 12° SSE 04:24:21 15° SE 04:26:55 10° E visible
08 Mar ? 06:00:32 10° SW 06:04:55 61° SSE 06:09:16 10° ENE visible
09 Mar ? 04:33:48 20° S 04:35:26 25° SE 04:39:05 10° E visible
10 Mar ? 05:44:55 28° SSW 05:46:37 40° SSE 05:50:47 10° ENE visible
11 Mar ? 04:19:11 13° ESE 04:19:11 13° ESE 04:19:59 10° E visible
11 Mar ? 05:55:55 31° SW 05:57:53 62° SSE 06:02:16 10° ENE visible
12 Mar ? 04:30:06 20° ESE 04:30:06 20° ESE 04:32:04 10° E visible
12 Mar ? 06:06:49 27° WSW 06:09:12 88° SSE 06:13:39 10° ENE visible
13 Mar ? 04:40:56 31° ESE 04:40:56 31° ESE 04:43:43 10° ENE visible
13 Mar ? 06:17:40 21° W 06:20:36 72° NNW 06:25:01 10° ENE visible
14 Mar ? 04:51:43 49° E 04:51:43 49° E 04:55:08 10° ENE visible
14 Mar ? 06:28:26 15° W 06:32:01 60° N 06:36:25 10° ENE visible
